This is the latest recevied weather packets stored in our database for station/object TULLARI. If no packets are shown the sender has not sent any weather packets the latest 10 day(s).
| Time | Temp. | Humidity | Pressure | Rain* | Wind** | Luminosity | Snow |
|---|---|---|---|---|---|---|---|
| 1778009246 | 5.56° C | 75% | 1008.8 hPa | - | - | - | - |
| 1778008046 | 5.56° C | 74% | 1008.7 hPa | - | - | - | - |
| 1778006845 | 5.56° C | 71% | 1008.6 hPa | - | - | - | - |
| 1778005645 | 5.56° C | 69% | 1008.4 hPa | - | - | - | - |
| 1778004445 | 6.11° C | 67% | 1008.2 hPa | - | - | - | - |
| 1778003245 | 6.11° C | 70% | 1008.1 hPa | - | - | - | - |
| 1778002044 | 6.11° C | 80% | 1008 hPa | - | - | - | - |
| 1778000844 | 6.11° C | 81% | 1007.9 hPa | - | - | - | - |
| 1777999645 | 6.11° C | 83% | 1007.9 hPa | - | - | - | - |
| 1777998445 | 6.11° C | 85% | 1007.9 hPa | - | - | - | - |
| 1777997245 | 6.67° C | 82% | 1007.8 hPa | - | - | - | - |
| 1777996045 | 6.67° C | 82% | 1007.7 hPa | - | - | - | - |
| 1777994845 | 7.22° C | 80% | 1007.6 hPa | - | - | - | - |
| 1777993645 | 7.22° C | 80% | 1007.7 hPa | - | - | - | - |
| 1777992445 | 6.67° C | 84% | 1007.6 hPa | - | - | - | - |
| 1777991244 | 6.67° C | 80% | 1007.5 hPa | - | - | - | - |
| 1777990044 | 6.67° C | 81% | 1007.5 hPa | - | - | - | - |
| 1777988845 | 7.22° C | 80% | 1007.3 hPa | - | - | - | - |
| 1777987644 | 7.22° C | 79% | 1007.2 hPa | - | - | - | - |
| 1777986445 | 7.22° C | 79% | 1007.1 hPa | - | - | - | - |
| 1777985243 | 7.22° C | 72% | 1007 hPa | - | - | - | - |
| 1777984044 | 7.22° C | 67% | 1006.8 hPa | - | - | - | - |
| 1777982844 | 7.22° C | 74% | 1006.6 hPa | - | - | - | - |
| 1777981644 | 7.22° C | 73% | 1006.5 hPa | - | - | - | - |
| 1777980444 | 7.22° C | 70% | 1006.4 hPa | - | - | - | - |
* Rain since midnight (hover to see other rain measurements)
** Current wind speed in m/s (hover to see current wind gust speed)